| time (UTC) | temp C | wind direction | speed KPH | gust KPH | rain 1hr cm | rain 24hr cm | rain mn cm | humidity % | barometer mb |
| 20260507070010 | 16 | 265 | 3.2 | 8.0 | 0.00 | 2.51 | 0.00 | 93 | 1014.7 |
| 20260507064507 | 16 | 259 | 3.2 | 6.4 | 0.00 | 2.64 | 0.00 | 94 | 1013.7 |
| 20260507064006 | 16 | 210 | 3.2 | 4.8 | 0.00 | 2.72 | 0.00 | 94 | 1013.7 |
| 20260507063505 | 15 | 189 | 0.0 | 3.2 | 0.00 | 2.84 | 0.00 | 94 | 1013.7 |
| 20260507063006 | 15 | 214 | 0.0 | 3.2 | 0.00 | 2.95 | 0.00 | 95 | 1013.7 |
| 20260507062506 | 15 | 206 | 3.2 | 3.2 | 0.00 | 3.05 | 0.00 | 95 | 1013.7 |
| 20260507062006 | 15 | 274 | 0.0 | 3.2 | 0.00 | 3.25 | 0.00 | 94 | 1013.7 |
| 20260507061505 | 15 | 327 | 1.6 | 3.2 | 0.00 | 3.25 | 0.00 | 94 | 1013.7 |
| 20260507061006 | 15 | 327 | 1.6 | 3.2 | 0.00 | 3.35 | 0.00 | 96 | 1013.7 |
| 20260507060505 | 15 | 314 | 0.0 | 3.2 | 0.00 | 3.48 | 0.00 | 96 | 1013.7 |
| 20260507060006 | 15 | 335 | 0.0 | 3.2 | 0.00 | 3.58 | 0.00 | 96 | 1013.7 |
| 20260507055506 | 14 | 73 | 0.0 | 3.2 | 0.00 | 3.58 | 0.00 | 96 | 1013.7 |
| 20260507055006 | 14 | 113 | 0.0 | 4.8 | 0.00 | 3.58 | 0.00 | 96 | 1013.7 |
| 20260507054006 | 14 | 86 | 3.2 | 4.8 | 0.00 | 3.58 | 0.00 | 96 | 1013.7 |
| 20260507053506 | 14 | 54 | 1.6 | 3.2 | 0.00 | 3.58 | 0.00 | 95 | 1013.7 |
| 20260507053006 | 14 | 39 | 0.0 | 3.2 | 0.00 | 3.58 | 0.00 | 95 | 1013.7 |
| 20260507052006 | 14 | 23 | 0.0 | 3.2 | 0.00 | 3.58 | 0.00 | 95 | 1013.7 |
| 20260507051006 | 13 | 25 | 1.6 | 3.2 | 0.00 | 3.58 | 0.00 | 95 | 1013.7 |
| 20260507050006 | 13 | 100 | 0.0 | 3.2 | 0.00 | 3.58 | 0.00 | 94 | 1013.7 |
| 20260507045505 | 13 | 88 | 1.6 | 4.8 | 0.00 | 3.58 | 0.00 | 94 | 1013.7 |
| 20260507044506 | 13 | 51 | 0.0 | 3.2 | 0.00 | 3.58 | 0.00 | 94 | 1013.7 |
| 20260507043506 | 14 | 0 | 0.0 | 0.0 | 0.00 | 3.58 | 0.00 | 94 | 1013.7 |
| 20260507043005 | 14 | 0 | 0.0 | 0.0 | 0.00 | 3.58 | 0.00 | 94 | 1013.7 |
| 20260507042506 | 14 | 292 | 0.0 | 3.2 | 0.00 | 3.58 | 0.00 | 94 | 1013.7 |
| 20260507042005 | 14 | 283 | 0.0 | 3.2 | 0.00 | 3.58 | 0.00 | 94 | 1013.7 |
| 20260507041506 | 14 | 18 | 0.0 | 3.2 | 0.00 | 3.58 | 0.00 | 94 | 1013.7 |
| 20260507041005 | 14 | 58 | 1.6 | 3.2 | 0.00 | 3.58 | 0.00 | 94 | 1013.7 |
| 20260507040506 | 14 | 86 | 3.2 | 3.2 | 0.00 | 3.58 | 0.00 | 94 | 1013.7 |
| 20260507040005 | 14 | 89 | 1.6 | 3.2 | 0.00 | 3.58 | 0.00 | 94 | 1013.7 |
| 20260507035506 | 14 | 85 | 0.0 | 4.8 | 0.00 | 3.58 | 0.00 | 94 | 1013.7 |
| 20260507034506 | 14 | 87 | 3.2 | 6.4 | 0.00 | 3.58 | 0.00 | 94 | 1013.7 |
| 20260507034006 | 14 | 65 | 3.2 | 6.4 | 0.00 | 3.58 | 0.00 | 94 | 1013.7 |
| 20260507033506 | 14 | 72 | 1.6 | 3.2 | 0.00 | 3.58 | 0.00 | 94 | 1013.7 |
| 20260507033005 | 14 | 77 | 0.0 | 4.8 | 0.00 | 3.58 | 0.00 | 94 | 1013.7 |
| 20260507032506 | 15 | 72 | 3.2 | 4.8 | 0.00 | 3.58 | 0.00 | 94 | 1013.7 |
| 20260507032005 | 15 | 86 | 3.2 | 6.4 | 0.00 | 3.58 | 0.00 | 94 | 1013.7 |
| 20260507030506 | 15 | 131 | 3.2 | 8.0 | 0.00 | 3.58 | 0.00 | 94 | 1013.7 |
| 20260507030005 | 15 | 172 | 3.2 | 8.0 | 0.00 | 3.58 | 0.00 | 94 | 1013.7 |
| 20260507025506 | 15 | 232 | 3.2 | 6.4 | 0.00 | 3.58 | 0.00 | 94 | 1013.7 |
| 20260507024506 | 15 | 278 | 3.2 | 4.8 | 0.00 | 3.58 | 0.00 | 94 | 1013.7 |
| 20260507024005 | 15 | 294 | 1.6 | 4.8 | 0.00 | 3.58 | 0.00 | 94 | 1013.7 |
| 20260507023506 | 15 | 270 | 1.6 | 12.9 | 0.00 | 3.58 | 0.00 | 95 | 1013.7 |
| 20260507023005 | 15 | 265 | 1.6 | 12.9 | 0.00 | 3.58 | 0.00 | 95 | 1013.7 |
| 20260507021506 | 15 | 251 | 3.2 | 6.4 | 0.00 | 3.58 | 0.00 | 96 | 1013.7 |
| 20260507021005 | 15 | 269 | 3.2 | 4.8 | 0.00 | 3.58 | 0.00 | 96 | 1012.7 |
| 20260507020506 | 15 | 19 | 0.0 | 3.2 | 0.00 | 3.58 | 0.00 | 96 | 1012.7 |
| 20260507020005 | 15 | 8 | 1.6 | 4.8 | 0.00 | 3.58 | 0.00 | 96 | 1012.7 |
| 20260507015506 | 15 | 248 | 1.6 | 4.8 | 0.00 | 3.58 | 0.00 | 96 | 1012.7 |
| 20260507015006 | 15 | 281 | 3.2 | 4.8 | 0.00 | 3.58 | 0.00 | 96 | 1012.7 |
| 20260507014505 | 15 | 293 | 0.0 | 8.0 | 0.00 | 3.58 | 0.00 | 96 | 1012.7 |
| 20260507014006 | 15 | 281 | 4.8 | 8.0 | 0.00 | 3.58 | 0.00 | 96 | 1013.7 |
| 20260507013505 | 15 | 262 | 6.4 | 8.0 | 0.00 | 3.58 | 0.00 | 95 | 1013.7 |
| 20260507013006 | 15 | 257 | 3.2 | 8.0 | 0.00 | 3.58 | 0.00 | 95 | 1013.7 |
| 20260507012505 | 15 | 247 | 3.2 | 6.4 | 0.00 | 3.58 | 0.00 | 95 | 1013.7 |
| 20260507012006 | 15 | 230 | 3.2 | 6.4 | 0.00 | 3.58 | 0.00 | 95 | 1013.7 |
| 20260507011506 | 15 | 258 | 3.2 | 8.0 | 0.00 | 3.58 | 0.00 | 96 | 1013.7 |
| 20260507011005 | 15 | 274 | 3.2 | 8.0 | 0.00 | 3.58 | 0.00 | 95 | 1012.7 |
| 20260507010506 | 15 | 270 | 4.8 | 8.0 | 0.00 | 3.58 | 0.00 | 95 | 1012.7 |
| 20260507010006 | 14 | 260 | 3.2 | 6.4 | 0.00 | 3.58 | 0.00 | 95 | 1012.7 |
| 20260507005006 | 15 | 272 | 3.2 | 6.4 | 0.00 | 3.68 | 0.00 | 95 | 1012.7 |
| 20260507004506 | 15 | 277 | 3.2 | 6.4 | 0.00 | 3.68 | 0.00 | 95 | 1012.7 |
| 20260507004005 | 14 | 267 | 4.8 | 6.4 | 0.00 | 3.78 | 0.00 | 95 | 1013.7 |
| 20260507003506 | 14 | 260 | 4.8 | 6.4 | 0.00 | 3.89 | 0.00 | 95 | 1013.7 |
| 20260507002505 | 14 | 269 | 4.8 | 6.4 | 0.00 | 4.22 | 0.00 | 95 | 1013.7 |
| 20260507001505 | 14 | 257 | 3.2 | 6.4 | 0.00 | 4.62 | 0.00 | 95 | 1013.7 |
| 20260507001006 | 14 | 256 | 1.6 | 6.4 | 0.00 | 4.62 | 0.00 | 95 | 1012.7 |
| 20260507000506 | 14 | 243 | 4.8 | 6.4 | 0.00 | 4.72 | 0.00 | 95 | 1012.7 |
| 20260507000006 | 14 | 247 | 3.2 | 6.4 | 0.00 | 4.72 | 0.00 | 95 | 1012.7 |
| 20260506235506 | 14 | 249 | 3.2 | 6.4 | 0.00 | 4.85 | 0.00 | 95 | 1013.7 |
| 20260506235005 | 14 | 236 | 3.2 | 6.4 | 0.00 | 4.85 | 0.00 | 95 | 1013.7 |
| 20260506234506 | 14 | 262 | 4.8 | 11.3 | 0.00 | 4.85 | 0.00 | 95 | 1013.7 |
| 20260506234005 | 14 | 266 | 3.2 | 11.3 | 0.00 | 4.85 | 0.00 | 95 | 1013.7 |
| 20260506233506 | 14 | 266 | 4.8 | 8.0 | 0.00 | 4.93 | 0.00 | 95 | 1013.7 |
| 20260506233006 | 14 | 260 | 3.2 | 8.0 | 0.00 | 5.05 | 0.00 | 95 | 1013.7 |
| 20260506232506 | 14 | 267 | 4.8 | 6.4 | 0.00 | 5.05 | 0.00 | 95 | 1013.7 |
| 20260506232019 | 14 | 285 | 4.8 | 6.4 | 0.00 | 5.16 | 0.00 | 95 | 1013.7 |
| 20260506231524 | 14 | 248 | 3.2 | 6.4 | 0.00 | 5.26 | 0.00 | 95 | 1013.7 |
| 20260506230507 | 14 | 241 | 3.2 | 8.0 | 0.00 | 5.26 | 0.00 | 95 | 1013.7 |
| 20260506225506 | 14 | 244 | 4.8 | 8.0 | 0.00 | 5.26 | 0.00 | 95 | 1013.7 |
| 20260506225005 | 14 | 278 | 3.2 | 12.9 | 0.00 | 5.26 | 0.00 | 95 | 1013.7 |
| 20260506224506 | 14 | 270 | 6.4 | 12.9 | 0.00 | 5.26 | 0.00 | 95 | 1013.7 |
| 20260506224005 | 14 | 238 | 4.8 | 9.7 | 0.00 | 5.26 | 0.00 | 95 | 1013.7 |
| 20260506223506 | 14 | 248 | 6.4 | 11.3 | 0.00 | 5.26 | 0.00 | 95 | 1013.7 |
| 20260506223005 | 14 | 269 | 6.4 | 12.9 | 0.00 | 5.26 | 0.00 | 95 | 1013.7 |
| 20260506222506 | 14 | 264 | 8.0 | 12.9 | 0.00 | 5.26 | 0.00 | 95 | 1012.7 |
| 20260506222005 | 14 | 248 | 6.4 | 8.0 | 0.00 | 5.26 | 0.00 | 95 | 1012.7 |
| 20260506221506 | 14 | 259 | 3.2 | 9.7 | 0.00 | 5.26 | 0.00 | 95 | 1012.7 |
| 20260506221005 | 14 | 264 | 6.4 | 9.7 | 0.00 | 5.26 | 0.00 | 95 | 1013.7 |
| 20260506220506 | 14 | 268 | 3.2 | 9.7 | 0.00 | 5.26 | 0.00 | 95 | 1013.7 |
| 20260506220011 | 14 | 265 | 6.4 | 9.7 | 0.00 | 5.26 | 0.00 | 95 | 1013.7 |
| 20260506215505 | 15 | 253 | 8.0 | 9.7 | 0.00 | 5.26 | 5.26 | 95 | 1013.7 |
| 20260506215006 | 15 | 263 | 3.2 | 4.8 | 0.00 | 5.26 | 5.26 | 95 | 1013.7 |
| 20260506214506 | 15 | 271 | 3.2 | 3.2 | 0.00 | 5.26 | 5.26 | 95 | 1013.7 |
| 20260506214006 | 15 | 271 | 3.2 | 4.8 | 0.00 | 5.26 | 5.26 | 95 | 1013.7 |
| 20260506213505 | 15 | 246 | 3.2 | 4.8 | 0.00 | 5.26 | 5.26 | 95 | 1013.7 |
| 20260506213006 | 15 | 245 | 0.0 | 6.4 | 0.00 | 5.26 | 5.26 | 95 | 1013.7 |
| 20260506212005 | 15 | 252 | 3.2 | 4.8 | 0.00 | 5.26 | 5.26 | 95 | 1013.7 |
| 20260506211506 | 15 | 234 | 3.2 | 4.8 | 0.00 | 5.26 | 5.26 | 94 | 1013.7 |
| 20260506211005 | 15 | 223 | 3.2 | 4.8 | 0.00 | 5.26 | 5.26 | 94 | 1013.7 |
| 20260506210506 | 15 | 233 | 3.2 | 4.8 | 0.00 | 5.26 | 5.26 | 94 | 1013.7 |
| 20260506205505 | 15 | 255 | 3.2 | 6.4 | 0.00 | 5.26 | 5.26 | 94 | 1013.7 |
| 20260506204506 | 15 | 244 | 3.2 | 8.0 | 0.00 | 5.26 | 5.26 | 94 | 1013.7 |
| 20260506204005 | 15 | 243 | 3.2 | 8.0 | 0.00 | 5.26 | 5.26 | 94 | 1013.7 |
| 20260506203506 | 15 | 250 | 3.2 | 6.4 | 0.00 | 5.26 | 5.26 | 94 | 1013.7 |
| 20260506203005 | 15 | 248 | 3.2 | 6.4 | 0.00 | 5.26 | 5.26 | 94 | 1013.7 |
| 20260506202506 | 15 | 249 | 3.2 | 6.4 | 0.00 | 5.26 | 5.26 | 94 | 1013.7 |
| 20260506202005 | 15 | 280 | 3.2 | 6.4 | 0.00 | 5.26 | 5.26 | 94 | 1013.7 |
| 20260506201505 | 15 | 277 | 4.8 | 8.0 | 0.00 | 5.26 | 5.26 | 94 | 1013.7 |
| 20260506201006 | 15 | 257 | 3.2 | 8.0 | 0.00 | 5.26 | 5.26 | 94 | 1013.7 |
| 20260506200505 | 15 | 248 | 6.4 | 8.0 | 0.00 | 5.26 | 5.26 | 95 | 1013.7 |
| 20260506200006 | 15 | 239 | 4.8 | 6.4 | 0.00 | 5.26 | 5.26 | 94 | 1013.7 |
| 20260506195505 | 15 | 253 | 3.2 | 6.4 | 0.00 | 5.26 | 5.26 | 94 | 1012.7 |
| 20260506195005 | 15 | 245 | 3.2 | 6.4 | 0.00 | 5.26 | 5.26 | 95 | 1012.7 |
| 20260506194506 | 15 | 235 | 4.8 | 6.4 | 0.00 | 5.26 | 5.26 | 95 | 1012.7 |
| 20260506194005 | 15 | 264 | 4.8 | 8.0 | 0.10 | 5.26 | 5.26 | 95 | 1012.7 |
| 20260506193005 | 15 | 226 | 4.8 | 6.4 | 0.20 | 5.26 | 5.26 | 95 | 1012.7 |
| 20260506192506 | 15 | 259 | 3.2 | 14.5 | 0.20 | 5.26 | 5.26 | 95 | 1012.7 |
| 20260506192005 | 15 | 280 | 4.8 | 14.5 | 0.30 | 5.26 | 5.26 | 94 | 1012.7 |
| 20260506191506 | 15 | 298 | 8.0 | 11.3 | 0.74 | 5.26 | 5.26 | 88 | 1012.7 |
| 20260506191005 | 15 | 291 | 3.2 | 11.3 | 0.84 | 5.26 | 5.26 | 88 | 1012.7 |
| 20260506190506 | 15 | 260 | 6.4 | 11.3 | 0.84 | 5.26 | 5.26 | 88 | 1012.7 |
| 20260506190006 | 15 | 255 | 0.0 | 9.7 | 0.84 | 5.26 | 5.26 | 88 | 1012.7 |
| 20260506185505 | 15 | 259 | 8.0 | 11.3 | 0.84 | 5.26 | 5.26 | 88 | 1011.7 |
| 20260506184505 | 15 | 98 | 0.0 | 6.4 | 0.84 | 5.26 | 5.26 | 87 | 1011.7 |
| 20260506184006 | 15 | 265 | 3.2 | 6.4 | 0.74 | 5.16 | 5.16 | 88 | 1011.7 |
| 20260506183505 | 15 | 9 | 3.2 | 3.2 | 0.74 | 5.16 | 5.16 | 87 | 1011.7 |
| 20260506183006 | 15 | 73 | 1.6 | 3.2 | 0.64 | 5.05 | 5.05 | 87 | 1011.7 |
| 20260506182506 | 15 | 196 | 3.2 | 4.8 | 0.64 | 5.05 | 5.05 | 87 | 1011.7 |
| 20260506182006 | 15 | 222 | 3.2 | 4.8 | 0.53 | 4.95 | 4.95 | 87 | 1011.7 |
| 20260506181505 | 15 | 248 | 3.2 | 4.8 | 0.10 | 4.52 | 4.52 | 87 | 1011.7 |
| 20260506180506 | 15 | 248 | 3.2 | 6.4 | 0.00 | 4.52 | 4.42 | 86 | 1011.7 |
| 20260506180006 | 16 | 270 | 3.2 | 4.8 | 0.30 | 4.52 | 4.42 | 86 | 1011.7 |
| 20260506175506 | 16 | 316 | 3.2 | 4.8 | 0.53 | 4.52 | 4.42 | 86 | 1011.7 |
| 20260506174506 | 16 | 158 | 3.2 | 11.3 | 0.64 | 4.52 | 4.42 | 86 | 1011.7 |
| 20260506173505 | 16 | 276 | 6.4 | 11.3 | 0.64 | 4.52 | 4.42 | 86 | 1011.7 |
| 20260506173006 | 16 | 272 | 6.4 | 14.5 | 0.64 | 4.52 | 4.42 | 86 | 1011.7 |
| 20260506172505 | 16 | 271 | 11.3 | 24.1 | 0.64 | 4.52 | 4.42 | 84 | 1011.7 |
| 20260506172005 | 16 | 267 | 14.5 | 24.1 | 0.64 | 4.52 | 4.42 | 86 | 1011.7 |
| 20260506171505 | 16 | 254 | 9.7 | 17.7 | 0.64 | 4.52 | 4.42 | 87 | 1011.7 |
| 20260506171006 | 16 | 257 | 6.4 | 19.3 | 0.64 | 4.52 | 4.42 | 88 | 1011.7 |
| 20260506170505 | 16 | 270 | 4.8 | 19.3 | 0.64 | 4.52 | 4.42 | 88 | 1011.7 |
| 20260506170006 | 16 | 290 | 6.4 | 9.7 | 0.33 | 4.22 | 4.11 | 88 | 1011.7 |
| 20260506165505 | 16 | 246 | 1.6 | 3.2 | 0.00 | 3.89 | 3.78 | 88 | 1011.7 |
| 20260506165006 | 16 | 194 | 1.6 | 3.2 | 0.00 | 3.89 | 3.78 | 88 | 1011.7 |
| 20260506164505 | 16 | 138 | 3.2 | 3.2 | 0.00 | 3.89 | 3.78 | 88 | 1011.7 |
| 20260506163505 | 16 | 58 | 3.2 | 3.2 | 0.00 | 3.89 | 3.78 | 88 | 1011.7 |
| 20260506163005 | 16 | 147 | 1.6 | 3.2 | 0.00 | 3.89 | 3.78 | 88 | 1011.7 |
| 20260506162506 | 16 | 127 | 0.0 | 3.2 | 0.00 | 3.89 | 3.78 | 88 | 1011.7 |
| 20260506162005 | 16 | 88 | 1.6 | 3.2 | 0.00 | 3.99 | 3.78 | 88 | 1011.7 |
| 20260506161505 | 16 | 68 | 0.0 | 3.2 | 0.00 | 3.99 | 3.78 | 88 | 1011.7 |
| 20260506161005 | 16 | 68 | 1.6 | 4.8 | 0.00 | 3.99 | 3.78 | 88 | 1010.7 |
| 20260506160506 | 16 | 58 | 3.2 | 4.8 | 0.00 | 3.99 | 3.78 | 88 | 1010.7 |
| 20260506155506 | 16 | 338 | 1.6 | 3.2 | 0.00 | 4.11 | 3.78 | 88 | 1011.7 |
| 20260506155006 | 16 | 250 | 0.0 | 3.2 | 0.00 | 4.11 | 3.78 | 88 | 1011.7 |
| 20260506154505 | 16 | 244 | 1.6 | 3.2 | 0.00 | 4.11 | 3.78 | 88 | 1011.7 |
| 20260506153505 | 16 | 262 | 3.2 | 3.2 | 0.00 | 4.11 | 3.78 | 89 | 1011.7 |
| 20260506152505 | 16 | 220 | 3.2 | 4.8 | 0.00 | 4.11 | 3.78 | 89 | 1012.7 |
| 20260506152006 | 16 | 217 | 3.2 | 4.8 | 0.00 | 4.11 | 3.78 | 88 | 1012.7 |
| 20260506151505 | 16 | 247 | 3.2 | 4.8 | 0.00 | 4.11 | 3.78 | 89 | 1012.7 |
| 20260506151005 | 16 | 291 | 1.6 | 4.8 | 0.00 | 4.22 | 3.78 | 89 | 1012.7 |
| 20260506150506 | 16 | 286 | 3.2 | 6.4 | 0.00 | 4.22 | 3.78 | 88 | 1012.7 |
| 20260506150005 | 16 | 269 | 3.2 | 6.4 | 0.00 | 4.22 | 3.78 | 88 | 1012.7 |
| 20260506145506 | 16 | 249 | 3.2 | 4.8 | 0.00 | 4.22 | 3.78 | 88 | 1012.7 |
| 20260506145006 | 16 | 249 | 3.2 | 4.8 | 0.00 | 4.22 | 3.78 | 88 | 1012.7 |
| 20260506144505 | 16 | 270 | 3.2 | 6.4 | 0.00 | 4.22 | 3.78 | 88 | 1012.7 |
| 20260506144006 | 16 | 292 | 4.8 | 6.4 | 0.00 | 4.22 | 3.78 | 88 | 1012.7 |
| 20260506143506 | 15 | 325 | 1.6 | 3.2 | 0.00 | 4.22 | 3.78 | 88 | 1012.7 |
| 20260506143005 | 15 | 90 | 0.0 | 3.2 | 0.00 | 4.22 | 3.78 | 88 | 1012.7 |
| 20260506142506 | 15 | 96 | 1.6 | 3.2 | 0.00 | 4.22 | 3.78 | 88 | 1012.7 |
| 20260506142005 | 15 | 335 | 0.0 | 3.2 | 0.00 | 4.22 | 3.78 | 88 | 1012.7 |
| 20260506140005 | 15 | 251 | 0.0 | 6.4 | 0.00 | 4.22 | 3.78 | 88 | 1012.7 |
| 20260506135505 | 15 | 246 | 0.0 | 6.4 | 0.00 | 4.22 | 3.78 | 88 | 1012.7 |
| 20260506135006 | 15 | 278 | 3.2 | 8.0 | 0.00 | 4.22 | 3.78 | 87 | 1012.7 |
| 20260506134505 | 15 | 290 | 3.2 | 8.0 | 0.00 | 4.22 | 3.78 | 87 | 1012.7 |
| 20260506133505 | 15 | 293 | 3.2 | 9.7 | 0.00 | 4.22 | 3.78 | 87 | 1013.7 |
| 20260506133005 | 15 | 308 | 4.8 | 9.7 | 0.10 | 4.22 | 3.78 | 88 | 1013.7 |
| 20260506132505 | 15 | 324 | 4.8 | 11.3 | 0.20 | 4.22 | 3.78 | 88 | 1013.7 |
| 20260506131505 | 15 | 349 | 6.4 | 9.7 | 0.20 | 4.22 | 3.78 | 88 | 1013.7 |
| 20260506131005 | 15 | 306 | 4.8 | 9.7 | 0.20 | 4.22 | 3.78 | 88 | 1013.7 |
| 20260506130505 | 15 | 320 | 6.4 | 9.7 | 0.20 | 4.22 | 3.78 | 88 | 1013.7 |
| 20260506130005 | 15 | 295 | 6.4 | 12.9 | 0.20 | 4.22 | 3.78 | 88 | 1013.7 |
| 20260506125005 | 15 | 300 | 6.4 | 12.9 | 0.30 | 4.22 | 3.78 | 88 | 1012.7 |
| 20260506124505 | 15 | 300 | 3.2 | 14.5 | 0.30 | 4.22 | 3.78 | 88 | 1012.7 |
| 20260506123505 | 15 | 300 | 6.4 | 9.7 | 0.20 | 4.22 | 3.68 | 88 | 1012.7 |
| 20260506123006 | 15 | 292 | 6.4 | 9.7 | 0.20 | 4.22 | 3.68 | 88 | 1012.7 |
| 20260506122505 | 15 | 280 | 4.8 | 6.4 | 0.10 | 4.11 | 3.58 | 88 | 1012.7 |
| 20260506122006 | 15 | 298 | 3.2 | 6.4 | 0.10 | 4.11 | 3.58 | 88 | 1012.7 |
| 20260506121505 | 15 | 274 | 3.2 | 8.0 | 0.20 | 4.11 | 3.58 | 88 | 1012.7 |
| 20260506121005 | 15 | 275 | 1.6 | 8.0 | 0.20 | 4.11 | 3.58 | 88 | 1013.7 |
| 20260506120006 | 15 | 290 | 6.4 | 6.4 | 0.20 | 4.11 | 3.58 | 88 | 1013.7 |
| 20260506115505 | 15 | 268 | 3.2 | 6.4 | 0.10 | 4.01 | 3.48 | 88 | 1013.7 |
| 20260506115005 | 15 | 266 | 3.2 | 8.0 | 0.10 | 4.01 | 3.48 | 88 | 1013.7 |
| 20260506114505 | 15 | 274 | 4.8 | 11.3 | 0.10 | 4.01 | 3.48 | 88 | 1013.7 |
| 20260506114005 | 15 | 272 | 3.2 | 14.5 | 0.10 | 4.01 | 3.48 | 88 | 1013.7 |
| 20260506113005 | 15 | 338 | 4.8 | 16.1 | 0.10 | 4.01 | 3.48 | 88 | 1013.7 |
| 20260506112506 | 15 | 332 | 6.4 | 11.3 | 0.10 | 4.01 | 3.48 | 88 | 1013.7 |
| 20260506112005 | 15 | 303 | 8.0 | 12.9 | 0.10 | 4.01 | 3.48 | 88 | 1013.7 |
| 20260506111505 | 15 | 296 | 9.7 | 12.9 | 0.10 | 3.91 | 3.38 | 88 | 1013.7 |
| 20260506110505 | 15 | 291 | 6.4 | 9.7 | 0.10 | 3.91 | 3.38 | 88 | 1013.7 |
| 20260506110005 | 15 | 279 | 6.4 | 9.7 | 0.10 | 3.91 | 3.38 | 88 | 1013.7 |
| 20260506105505 | 15 | 255 | 4.8 | 11.3 | 0.10 | 4.01 | 3.38 | 88 | 1014.7 |
| 20260506105005 | 15 | 256 | 6.4 | 11.3 | 0.10 | 4.01 | 3.38 | 88 | 1014.7 |
| 20260506104505 | 15 | 244 | 4.8 | 11.3 | 0.10 | 4.01 | 3.38 | 88 | 1014.7 |
| 20260506104005 | 15 | 253 | 3.2 | 9.7 | 0.10 | 4.01 | 3.38 | 88 | 1013.7 |
| 20260506103505 | 15 | 272 | 6.4 | 9.7 | 0.10 | 4.01 | 3.38 | 88 | 1013.7 |
| 20260506103005 | 15 | 273 | 3.2 | 9.7 | 0.10 | 4.01 | 3.38 | 88 | 1013.7 |
| 20260506102505 | 15 | 277 | 3.2 | 11.3 | 0.10 | 4.01 | 3.38 | 89 | 1013.7 |
| 20260506102005 | 15 | 296 | 4.8 | 11.3 | 0.10 | 4.01 | 3.38 | 89 | 1013.7 |
| 20260506101505 | 15 | 299 | 3.2 | 9.7 | 0.00 | 3.91 | 3.28 | 89 | 1013.7 |
| 20260506101005 | 15 | 295 | 6.4 | 9.7 | 0.00 | 4.01 | 3.28 | 89 | 1013.7 |
| 20260506100505 | 15 | 302 | 3.2 | 8.0 | 0.00 | 4.01 | 3.28 | 90 | 1013.7 |
| 20260506100006 | 15 | 281 | 3.2 | 9.7 | 0.00 | 4.01 | 3.28 | 90 | 1013.7 |
| 20260506095505 | 15 | 276 | 3.2 | 9.7 | 0.00 | 4.01 | 3.28 | 90 | 1013.7 |
| 20260506095006 | 15 | 304 | 3.2 | 14.5 | 0.00 | 4.01 | 3.28 | 91 | 1013.7 |
| 20260506094006 | 15 | 322 | 8.0 | 11.3 | 0.13 | 4.01 | 3.28 | 91 | 1013.7 |
| 20260506093505 | 15 | 338 | 4.8 | 6.4 | 0.13 | 4.01 | 3.28 | 91 | 1013.7 |
| 20260506093005 | 15 | 75 | 3.2 | 6.4 | 0.13 | 4.01 | 3.28 | 91 | 1013.7 |
| 20260506092505 | 15 | 72 | 3.2 | 6.4 | 0.13 | 4.01 | 3.28 | 91 | 1013.7 |
| 20260506092005 | 15 | 60 | 3.2 | 6.4 | 0.23 | 4.01 | 3.28 | 90 | 1013.7 |
| 20260506091505 | 15 | 58 | 3.2 | 6.4 | 0.23 | 4.01 | 3.28 | 91 | 1013.7 |
| 20260506091006 | 15 | 64 | 3.2 | 6.4 | 0.23 | 4.01 | 3.28 | 90 | 1013.7 |
| 20260506090505 | 15 | 94 | 3.2 | 4.8 | 0.33 | 4.01 | 3.28 | 91 | 1013.7 |
| 20260506090005 | 15 | 113 | 0.0 | 3.2 | 0.33 | 4.01 | 3.28 | 92 | 1013.7 |
| 20260506085505 | 15 | 62 | 0.0 | 3.2 | 0.43 | 4.01 | 3.28 | 92 | 1013.7 |
| 20260506085005 | 14 | 45 | 0.0 | 3.2 | 0.43 | 4.01 | 3.28 | 91 | 1013.7 |
| 20260506084506 | 14 | 45 | 3.2 | 3.2 | 0.30 | 3.89 | 3.15 | 91 | 1013.7 |
| 20260506084005 | 14 | 7 | 0.0 | 3.2 | 0.30 | 3.89 | 3.15 | 91 | 1013.7 |
| 20260506083505 | 14 | 240 | 0.0 | 6.4 | 0.30 | 3.89 | 3.15 | 91 | 1013.7 |
| 20260506083005 | 14 | 233 | 1.6 | 6.4 | 0.30 | 3.89 | 3.15 | 91 | 1013.7 |
| 20260506082005 | 14 | 253 | 3.2 | 3.2 | 0.30 | 3.78 | 3.05 | 91 | 1012.7 |
| 20260506081505 | 14 | 273 | 1.6 | 3.2 | 0.30 | 3.78 | 3.05 | 91 | 1012.7 |
| 20260506081005 | 14 | 276 | 3.2 | 4.8 | 0.30 | 3.78 | 3.05 | 91 | 1012.7 |
| 20260506080505 | 14 | 282 | 4.8 | 4.8 | 0.20 | 3.68 | 2.95 | 90 | 1012.7 |
| 20260506073004 | 14 | 192 | 0.0 | 3.2 | 0.53 | 3.58 | 2.84 | 91 | 1013.7 |
| 20260506072505 | 14 | 177 | 1.6 | 3.2 | 0.53 | 3.48 | 2.74 | 91 | 1013.7 |
| 20260506072005 | 13 | 134 | 1.6 | 3.2 | 0.74 | 3.48 | 2.74 | 91 | 1013.7 |
| 20260506071505 | 13 | 65 | 1.6 | 3.2 | 0.74 | 3.48 | 2.74 | 90 | 1013.7 |
| 20260506071005 | 13 | 14 | 0.0 | 4.8 | 0.84 | 3.48 | 2.74 | 90 | 1013.7 |
| 20260506070505 | 13 | 25 | 3.2 | 6.4 | 0.97 | 3.48 | 2.74 | 90 | 1013.7 |